TimeEST,TemperatureF,Dew PointF,Humidity,Sea Level PressureIn,VisibilityMPH,Wind Direction,Wind SpeedMPH,Gust SpeedMPH,PrecipitationIn,Events,Conditions,WindDirDegrees,DateUTC
12:53 AM,61.0,57.0,87,30.15,8.0,North,9.2,-,N/A,,Overcast,350,2012-11-17 05:53:00
1:53 AM,61.0,57.0,87,30.14,8.0,North,8.1,-,N/A,,Overcast,350,2012-11-17 06:53:00
2:42 AM,62.6,57.2,82,30.12,8.0,North,9.2,-,N/A,,Overcast,360,2012-11-17 07:42:00
2:53 AM,62.1,57.9,86,30.13,9.0,North,10.4,-,N/A,,Overcast,10,2012-11-17 07:53:00
3:38 AM,62.6,57.2,82,30.12,9.0,North,6.9,-,N/A,,Overcast,10,2012-11-17 08:38:00
3:45 AM,62.6,57.2,82,30.12,9.0,North,6.9,-,N/A,,Overcast,360,2012-11-17 08:45:00
3:53 AM,62.1,57.9,86,30.13,9.0,North,5.8,-,N/A,,Overcast,360,2012-11-17 08:53:00
4:31 AM,60.8,57.2,88,30.12,10.0,North,5.8,-,N/A,,Overcast,350,2012-11-17 09:31:00
4:49 AM,60.8,57.2,88,30.13,10.0,North,5.8,-,N/A,,Overcast,360,2012-11-17 09:49:00
4:53 AM,61.0,57.0,87,30.14,10.0,North,6.9,-,N/A,,Overcast,360,2012-11-17 09:53:00
5:10 AM,60.8,57.2,88,30.13,10.0,North,5.8,-,N/A,,Overcast,10,2012-11-17 10:10:00
5:23 AM,60.8,57.2,88,30.13,10.0,North,5.8,-,N/A,,Overcast,350,2012-11-17 10:23:00
5:35 AM,60.8,57.2,88,30.15,9.0,Variable,3.5,-,N/A,,Overcast,0,2012-11-17 10:35:00
5:44 AM,60.8,57.2,88,30.15,9.0,Calm,Calm,-,N/A,,Overcast,0,2012-11-17 10:44:00
5:53 AM,61.0,57.9,90,30.16,9.0,NW,4.6,-,N/A,,Overcast,320,2012-11-17 10:53:00
6:22 AM,60.8,57.2,88,30.15,9.0,Calm,Calm,-,N/A,,Overcast,0,2012-11-17 11:22:00
6:53 AM,61.0,57.0,87,30.17,9.0,NNW,5.8,-,N/A,,Scattered Clouds,330,2012-11-17 11:53:00
8:53 AM,66.0,59.0,78,30.18,10.0,North,5.8,-,N/A,,Clear,10,2012-11-17 13:53:00
9:53 AM,71.1,59.0,66,30.18,10.0,NNW,5.8,-,N/A,,Clear,330,2012-11-17 14:53:00
10:53 AM,72.0,60.1,66,30.17,10.0,NNW,8.1,-,N/A,,Partly Cloudy,340,2012-11-17 15:53:00
11:53 AM,75.9,60.1,58,30.15,10.0,North,8.1,-,N/A,,Scattered Clouds,10,2012-11-17 16:53:00
12:53 PM,75.9,59.0,56,30.13,10.0,ENE,12.7,-,N/A,,Mostly Cloudy,60,2012-11-17 17:53:00
1:53 PM,75.9,60.1,58,30.11,10.0,NE,13.8,-,N/A,,Scattered Clouds,40,2012-11-17 18:53:00
2:53 PM,77.0,59.0,54,30.11,10.0,NNE,15.0,20.7,N/A,,Scattered Clouds,30,2012-11-17 19:53:00
3:53 PM,73.9,60.1,62,30.12,10.0,NE,9.2,-,N/A,,Mostly Cloudy,50,2012-11-17 20:53:00
4:53 PM,70.0,59.0,68,30.13,10.0,NNE,13.8,23.0,N/A,,Mostly Cloudy,20,2012-11-17 21:53:00
5:53 PM,68.0,60.1,76,30.15,10.0,North,10.4,-,0.00,,Partly Cloudy,10,2012-11-17 22:53:00
6:17 PM,68.0,60.8,78,30.15,10.0,North,10.4,-,N/A,,Mostly Cloudy,10,2012-11-17 23:17:00
6:53 PM,68.0,60.1,76,30.17,10.0,North,12.7,20.7,N/A,,Overcast,10,2012-11-17 23:53:00
7:53 PM,66.0,60.1,81,30.18,10.0,NNE,13.8,21.9,N/A,,Overcast,20,2012-11-18 00:53:00
8:53 PM,66.0,60.1,81,30.18,10.0,North,16.1,-,N/A,,Overcast,10,2012-11-18 01:53:00
9:22 PM,66.2,59.0,78,30.17,10.0,North,8.1,-,N/A,,Overcast,10,2012-11-18 02:22:00
9:31 PM,66.2,60.8,83,30.18,10.0,North,13.8,19.6,N/A,,Overcast,10,2012-11-18 02:31:00
9:44 PM,66.2,60.8,83,30.18,10.0,North,15.0,-,N/A,,Overcast,10,2012-11-18 02:44:00
9:53 PM,66.0,60.1,81,30.19,10.0,North,11.5,-,N/A,,Overcast,10,2012-11-18 02:53:00
10:18 PM,64.4,60.8,88,30.18,10.0,North,10.4,-,N/A,,Overcast,360,2012-11-18 03:18:00
10:53 PM,64.9,60.1,84,30.18,10.0,North,11.5,-,N/A,,Mostly Cloudy,360,2012-11-18 03:53:00
11:16 PM,64.4,60.8,88,30.17,10.0,North,9.2,-,N/A,,Overcast,10,2012-11-18 04:16:00
11:53 PM,64.9,60.1,84,30.17,10.0,North,11.5,-,N/A,,Overcast,10,2012-11-18 04:53:00